Volver al catálogo

KUIPER-00507

ActivoComunicacionesLEO
NORAD 68887·PAYLOAD·🇺🇸 United States

Lanzado Apr 28, 2026 desde Cape Canaveral Space Force Station

Loading…

Próximos Pases (próximas 24 horas)

TLE

ActualizadoSource: CelesTrak SupGP

Época: Sep 14, 2026, 19:55 UTC

1 68887C 26095Z   26257.83033565  .00001419  00000+0  18578-3 0  2577
2 68887  51.8993 199.2517 0000846  80.9807  24.5759 14.79921663    19

Sigue KUIPER-00507 en tiempo real con AllMySat

Download on the App Store